Wind_Speed
11 9 7 5 4 5 7 8 10 12 14 16 18 20 21 22 23 24 24 23 23 23 24 24 24 24 25 24 24 23 23 23 23 23 23 23 22 22
11 10 8 6 5 5 6 8 10 12 13 15 16 18 20 21 22 23 24 23 23 23 24 25 25 25 25 25 25 25 24 24 25 25 26 25 25 25
12 11 9 8 6 6 7 8 9 11 13 14 15 18 19 21 22 23 23 24 24 24 24 25 26 26 26 26 26 26 26 26 25 26 26 26 27 27
13 12 10 9 8 8 8 9 10 11 12 14 15 17 19 21 22 23 23 25 25 25 26 26 27 28 28 27 28 28 27 27 27 26 26 26 26 27
14 13 11 11 10 9 9 10 10 12 13 14 15 17 18 20 21 23 23 24 26 26 27 27 27 28 29 29 29 29 29 28 28 28 27 27 27 27
16 15 13 13 12 12 12 12 12 12 13 14 16 17 19 21 22 23 24 24 26 26 27 27 28 28 29 29 29 29 29 29 28 28 28 28 28 28
18 17 16 15 14 14 13 13 14 14 14 15 17 18 19 21 21 23 24 25 26 27 27 28 28 28 28 29 29 29 29 29 29 29 28 28 28 29
20 19 19 18 17 17 16 16 16 17 17 18 18 19 20 21 22 22 24 25 26 27 27 28 28 28 28 28 29 29 30 30 30 30 29 29 29 29
23 22 21 20 20 20 20 19 19 19 20 20 20 21 21 22 22 23 24 25 25 26 27 27 27 27 28 27 27 28 29 29 29 30 29 29 30 29
27 26 25 24 23 23 23 23 22 22 22 22 23 23 22 23 23 24 24 25 25 26 26 27 27 27 27 27 28 28 28 29 29 29 30 29 29 29
31 30 29 28 27 26 26 25 25 25 25 25 25 25 25 25 25 25 26 26 26 27 27 27 27 27 27 27 28 28 28 28 28 28 29 29 29 28
33 33 33 31 31 30 30 29 28 28 28 27 27 27 27 27 27 27 27 27 27 27 27 27 28 28 28 28 28 28 28 28 27 27 28 29 29 28
36 36 36 35 34 34 33 32 32 32 31 30 29 29 29 29 29 29 29 28 28 28 28 28 28 29 28 28 28 28 28 28 27 27 28 27 27 27
39 39 38 39 39 37 36 36 35 35 35 34 33 32 31 30 30 30 30 29 29 29 29 29 28 28 28 27 27 27 27 27 26 26 25 25 26 26
42 42 42 42 42 42 40 39 39 38 37 37 36 35 34 33 32 32 32 31 31 30 30 30 30 29 28 27 27 27 26 25 25 26 26 25 26 27
45 45 45 45 44 44 44 43 42 41 40 40 39 38 37 36 35 34 34 33 33 32 31 30 30 30 29 28 27 27 27 26 26 26 27 26 27 27
47 48 48 48 48 47 46 46 46 45 43 42 42 41 39 38 37 36 36 36 35 33 32 32 31 30 29 28 28 28 28 27 27 27 27 27 27 28
49 49 49 50 50 50 49 48 48 47 46 46 45 44 43 41 40 38 37 37 36 35 34 33 32 31 30 29 29 28 28 28 29 28 28 28 28 28
51 50 51 51 51 51 51 50 49 48 48 47 46 46 45 44 42 41 39 38 37 36 36 35 34 33 32 31 30 30 29 29 30 29 29 29 29 29
51 51 51 50 50 51 51 51 50 49 49 48 47 47 46 46 44 43 41 40 39 38 37 36 35 34 33 32 32 31 31 30 30 29 29 29 29 30
50 50 50 50 49 49 49 49 50 50 50 49 48 48 47 47 46 45 43 42 41 40 39 37 37 36 35 34 33 32 32 32 31 31 30 30 30 30
49 49 49 48 48 48 47 48 49 49 49 49 49 49 48 48 47 46 45 44 42 40 40 39 39 38 37 35 35 34 33 32 32 32 31 31 31 30
49 48 48 47 47 47 47 47 48 49 49 48 49 49 48 47 47 47 47 45 44 42 40 40 40 39 38 37 36 35 34 33 33 32 32 32 32 31
Wind_Direction
356 351 340 325 299 264 251 239 229 227 227 226 224 223 222 222 222 222 224 226 225 226 226 227 228 230 231 233 234 236 238 240 241 242 245 247 249 251
351 348 341 327 309 285 264 250 237 233 231 231 228 226 225 226 226 224 226 229 228 229 229 230 232 232 234 236 237 239 241 242 243 244 247 250 251 252
345 342 335 324 308 289 273 255 245 235 231 231 231 229 229 229 228 228 229 230 230 233 233 234 234 235 237 240 240 241 243 245 246 247 249 250 251 251
336 333 327 320 307 291 275 260 249 241 235 233 235 235 231 230 231 232 233 234 235 235 236 237 237 238 240 242 243 244 245 247 249 251 251 251 253 254
327 324 318 312 302 292 282 267 256 245 240 238 239 237 234 235 237 236 237 237 237 239 239 240 241 241 242 244 245 247 247 248 250 251 252 253 254 254
319 316 313 306 298 291 282 272 261 250 244 243 242 241 239 239 240 240 239 238 239 240 240 243 243 243 244 245 246 247 247 248 251 253 253 254 254 255
311 308 305 302 296 290 283 275 266 258 251 248 247 244 243 243 243 242 242 241 241 243 244 244 244 244 246 247 247 247 248 249 251 252 253 253 254 256
305 301 298 295 291 288 284 278 271 262 257 253 251 247 245 246 245 245 244 243 243 243 244 244 244 245 246 247 248 248 249 250 251 251 253 254 255 257
300 297 294 291 287 284 281 276 271 267 262 258 256 252 250 246 246 246 246 245 244 243 243 244 244 245 245 246 248 249 249 250 251 252 252 254 256 258
296 293 291 287 284 281 277 274 271 268 265 261 259 257 255 251 248 247 247 246 244 244 243 244 244 245 245 247 249 251 252 251 252 253 254 255 256 257
291 289 287 284 281 278 275 272 269 266 264 261 260 257 254 253 252 250 249 249 248 247 246 247 246 245 246 248 249 250 252 253 254 256 256 256 256 257
287 285 283 281 279 276 273 271 268 265 263 261 259 259 256 254 253 251 250 250 249 249 249 248 248 247 247 249 250 251 252 254 254 255 255 256 257 256
283 281 280 278 275 273 272 269 267 264 262 260 259 258 257 255 253 251 250 249 248 248 249 249 249 249 249 249 249 252 253 254 254 255 255 255 255 255
280 279 278 276 273 270 268 267 265 263 261 259 257 256 255 254 253 252 249 249 248 248 248 249 249 249 249 249 249 251 253 254 254 255 255 256 256 257
277 276 275 273 271 269 266 264 263 262 260 257 256 255 254 252 251 250 250 249 248 247 247 247 248 248 249 249 250 249 250 252 253 253 254 255 256 257
276 274 273 271 269 266 264 262 261 260 259 257 255 253 252 251 250 250 249 249 249 248 248 248 248 249 249 250 250 249 249 251 252 253 254 256 257 259
274 272 271 269 268 265 262 260 259 259 258 256 254 252 251 250 250 250 249 248 248 248 248 248 248 248 249 248 248 248 249 249 251 253 254 256 257 260
273 271 269 269 267 264 261 258 258 257 256 255 253 252 250 249 249 248 248 248 248 247 246 247 247 247 247 247 248 249 249 250 251 253 255 257 259 261
273 270 269 268 266 263 260 257 256 255 255 254 252 250 249 248 248 247 246 246 246 246 246 245 245 246 247 248 248 249 250 251 252 253 255 258 260 262
273 270 269 267 265 262 259 256 255 253 252 251 251 249 248 247 246 245 245 245 245 244 244 244 245 245 246 247 248 249 250 252 253 255 257 259 261 264
273 271 269 267 265 261 258 255 254 252 249 249 249 247 246 246 245 243 243 243 243 243 243 243 244 245 245 246 247 248 250 252 254 256 258 260 262 264
274 271 269 267 264 259 256 254 253 251 249 248 246 245 244 243 242 241 241 241 241 241 242 242 243 244 245 246 247 248 250 252 254 256 258 260 262 264
275 271 268 265 263 257 255 254 252 251 248 245 243 242 241 241 241 240 239 240 240 240 240 241 242 243 244 245 247 249 251 252 254 256 259 261 263 264
Height
5802 5800 5799 5799 5799 5799 5800 5801 5803 5805 5808 5810 5813 5816 5819 5823 5826 5830 5834 5837 5840 5844 5847 5850 5853 5856 5859 5862 5865 5867 5869 5872 5874 5876 5878 5880 5882 5884
5802 5801 5799 5799 5799 5799 5799 5800 5802 5804 5806 5808 5810 5813 5816 5819 5823 5826 5830 5833 5836 5839 5842 5845 5848 5851 5854 5857 5860 5862 5864 5866 5868 5871 5873 5875 5876 5878
5802 5800 5799 5799 5798 5798 5799 5799 5800 5802 5803 5805 5808 5810 5813 5816 5819 5822 5825 5828 5832 5835 5837 5840 5843 5846 5849 5851 5854 5856 5859 5861 5863 5864 5866 5868 5870 5872
5801 5800 5799 5798 5797 5797 5797 5798 5799 5800 5801 5803 5805 5807 5809 5812 5815 5818 5820 5823 5826 5829 5832 5834 5837 5840 5843 5845 5848 5850 5852 5854 5856 5858 5860 5862 5863 5865
5799 5798 5797 5797 5796 5796 5795 5796 5796 5797 5799 5800 5802 5803 5806 5808 5810 5813 5815 5818 5820 5823 5825 5828 5831 5833 5836 5838 5841 5843 5845 5848 5849 5851 5853 5855 5856 5858
5797 5796 5795 5794 5794 5793 5793 5793 5794 5794 5796 5797 5798 5800 5802 5804 5806 5808 5810 5812 5815 5817 5819 5822 5824 5827 5829 5831 5834 5836 5838 5840 5842 5844 5845 5847 5849 5851
5794 5793 5792 5791 5791 5790 5790 5790 5790 5791 5792 5793 5794 5795 5797 5799 5801 5802 5804 5806 5808 5811 5813 5815 5818 5820 5822 5824 5826 5828 5831 5833 5834 5836 5838 5840 5841 5843
5790 5789 5788 5788 5787 5786 5786 5786 5786 5787 5788 5788 5789 5791 5792 5794 5795 5797 5798 5800 5802 5804 5806 5808 5810 5813 5815 5817 5818 5821 5823 5825 5827 5828 5830 5832 5833 5835
5784 5784 5783 5783 5782 5781 5781 5781 5781 5781 5782 5783 5784 5785 5787 5788 5789 5791 5792 5794 5796 5797 5799 5801 5803 5805 5807 5809 5811 5813 5815 5817 5819 5820 5822 5824 5825 5826
5777 5777 5776 5776 5776 5775 5775 5775 5775 5775 5776 5777 5778 5779 5780 5781 5783 5784 5785 5787 5789 5790 5792 5794 5796 5798 5800 5802 5803 5805 5807 5809 5811 5812 5814 5815 5816 5818
5768 5768 5768 5768 5767 5767 5768 5768 5768 5768 5768 5769 5770 5771 5773 5774 5775 5777 5779 5780 5782 5783 5785 5787 5789 5791 5792 5794 5796 5798 5799 5801 5802 5804 5805 5806 5808 5809
5759 5758 5758 5758 5758 5758 5758 5759 5759 5760 5760 5761 5762 5763 5765 5766 5767 5769 5771 5772 5774 5776 5777 5779 5781 5783 5785 5786 5788 5789 5791 5792 5793 5795 5796 5797 5799 5800
5746 5747 5747 5747 5747 5747 5747 5748 5749 5750 5751 5752 5753 5755 5756 5758 5759 5760 5762 5764 5766 5768 5769 5771 5773 5774 5776 5778 5779 5781 5782 5784 5785 5786 5787 5788 5790 5791
5733 5733 5734 5734 5734 5735 5736 5737 5738 5739 5740 5742 5743 5745 5747 5748 5749 5751 5753 5755 5757 5758 5760 5762 5764 5765 5767 5769 5771 5773 5774 5775 5776 5777 5779 5780 5781 5783
5718 5719 5719 5720 5720 5721 5723 5724 5725 5726 5728 5730 5732 5734 5736 5737 5739 5741 5743 5745 5747 5749 5751 5753 5755 5756 5758 5760 5762 5764 5765 5767 5768 5769 5771 5772 5773 5774
5701 5703 5704 5704 5705 5706 5708 5710 5711 5713 5715 5717 5719 5722 5724 5726 5728 5730 5732 5734 5737 5739 5741 5743 5745 5747 5749 5751 5753 5755 5757 5758 5760 5761 5762 5763 5764 5765
5684 5685 5686 5687 5688 5690 5692 5694 5696 5698 5701 5703 5705 5708 5711 5713 5716 5718 5721 5723 5726 5729 5731 5733 5735 5737 5739 5742 5744 5746 5747 5749 5751 5752 5753 5754 5755 5756
5665 5666 5668 5669 5671 5673 5675 5678 5680 5682 5685 5688 5691 5694 5696 5699 5703 5706 5709 5711 5715 5718 5720 5722 5725 5727 5730 5732 5734 5736 5738 5740 5741 5743 5744 5745 5746 5747
5646 5647 5648 5649 5651 5653 5656 5659 5662 5665 5668 5671 5675 5678 5682 5685 5689 5692 5696 5699 5702 5706 5709 5711 5714 5717 5719 5722 5724 5726 5728 5730 5731 5733 5734 5736 5736 5737
5627 5627 5628 5629 5631 5633 5636 5639 5643 5647 5650 5654 5658 5663 5666 5670 5674 5678 5682 5686 5689 5693 5696 5699 5703 5706 5709 5711 5713 5716 5717 5719 5721 5723 5724 5725 5726 5727
5608 5608 5608 5609 5611 5614 5617 5620 5624 5628 5632 5636 5641 5646 5650 5655 5659 5664 5668 5672 5675 5680 5684 5688 5691 5694 5697 5700 5703 5705 5707 5709 5711 5712 5714 5715 5716 5717
5590 5589 5589 5590 5592 5595 5598 5601 5605 5609 5614 5618 5623 5628 5633 5638 5643 5649 5653 5657 5662 5666 5671 5675 5678 5682 5685 5689 5692 5694 5696 5698 5700 5702 5703 5705 5706 5707
5571 5570 5571 5572 5573 5576 5579 5582 5586 5591 5595 5600 5604 5610 5616 5621 5627 5633 5638 5642 5647 5652 5657 5662 5666 5669 5673 5677 5680 5683 5685 5687 5689 5691 5692 5693 5695 5696